Location: Unspecified
(48.7670°N, 0.0000°E)
Time: 13:16:21
(UTC+00:00)

Courier 1B - Pass Details

Date: 25 June 2019
Orbit: 963 x 1209 km, 28.3° (Epoch: 22 July)

Event Time Altitude Azimuth Distance (km) Brightness Sun altitude
Rises 17:41:19 0° 218° (SW) 3,769 10.9 20.8°
Reaches altitude 10° 17:46:05 10° 189° (S) 2,879 10.0 20.0°
Maximum altitude 17:48:30 12° 168° (SSE) 2,768 9.7 19.6°
Drops below altitude 10° 17:50:57 10° 148° (SSE) 2,946 9.7 19.2°
Sets 17:55:59 0° 120° (ESE) 3,971 10.1 18.4°
